Location: Kilimmba
(14.7443°N, 3.0143°W)
Time: 14:31:42
(UTC+00:00)

Daily predictions for brighter satellites

Satellite Brightness Start Highest point End
(mag) Time Altitude Azimuth Time Altitude Azimuth Time Altitude Azimuth
ARIANE 44L R/B 4.2 17:58:01 10° SW 18:01:05 38° SSE 18:12:37 10° E
CORIOLIS 4.1 17:58:14 10° SSE 18:03:35 75° ENE 18:08:58 10° N
Cosmos 2279 Rocket 4.4 17:58:23 10° S 18:04:34 71° W 18:10:45 10° N
Cosmos 1151 Rocket 4.2 18:00:29 10° SSW 18:04:36 47° W 18:08:46 10° N
AQUARIUS 4.1 18:00:19 10° SSE 18:04:47 80° ENE 18:09:16 10° N
Cosmos 1697 Rocket 2.7 18:00:29 10° NNW 18:06:05 78° ENE 18:11:41 10° SSE
Aureole 3 Rocket 3.9 18:07:12 10° SE 18:09:51 22° E 18:12:59 10° NE
SMAP 3.4 18:05:34 10° S 18:10:12 71° WSW 18:14:49 10° NNW
COSMO-SKYMED 1 2.8 18:06:44 10° N 18:11:04 77° WNW 18:15:23 10° SSW
Cosmos 1980 Rocket 2.7 18:06:20 10° N 18:11:27 36° ENE 18:16:31 10° SE
CZ-4C R/B 4.2 18:06:23 10° NNE 18:12:22 22° ENE 18:18:36 10° ESE
ATLAS 5 CENTAUR R/B 2.7 17:54:46 10° WSW 18:14:11 82° SSE 18:18:41 11° ENE
Cosmos 1898 Rocket 4.3 18:10:30 10° NNW 18:15:34 57° WSW 18:20:37 10° S
Cosmos 1633 Rocket 3.4 18:11:41 10° NNE 18:15:52 45° E 18:20:04 10° SSE
Cosmos 2369 3.7 18:12:48 10° N 18:18:25 60° ENE 18:24:00 10° SSE
ARGOS 3.8 18:14:49 10° SE 18:19:33 32° ENE 18:24:17 10° NNE
Delta 2 Rocket 3.6 18:16:28 10° WSW 18:21:12 76° NW 18:24:53 13° NE
MOS 1-B 4.4 18:15:34 10° SSE 18:21:13 60° ENE 18:26:52 10° N
DMSP B5D2-2 4.5 18:17:59 10° NNE 18:22:54 42° E 18:27:50 10° S
CZ-4B DEB 4.3 18:17:48 10° S 18:23:20 84° WSW 18:28:51 10° NNW
CZ-4C R/B 2.8 18:20:50 10° NNE 18:24:12 73° ESE 18:27:39 10° S
Okean O Rocket 2.3 18:22:01 10° SE 18:25:57 32° ENE 18:29:54 10° NNE
Meteor 1-5 Rocket 4.3 18:20:29 10° N 18:26:18 64° E 18:31:57 10° SSE
H-2A R/B 2.0 18:27:03 10° SSE 18:32:21 87° ENE 18:37:31 10° N
GPS 2-12 Rocket1 2.9 18:28:22 10° WSW 18:32:53 85° SSE 18:35:59 20° ENE
Landsat 5 4.1 18:29:37 10° N 18:33:26 53° WNW 18:37:10 10° SSW
Meteor 1-14 Rocket 4.4 18:30:22 10° N 18:36:18 86° W 18:42:17 10° S
Cosmos 773 Rocket 4.5 18:31:59 10° S 18:36:53 40° E 18:40:48 15° NE
Cosmos 1544 3.9 18:35:27 15° NNE 18:37:50 28° E 18:40:59 10° SE
USA 32 3.9 18:34:53 10° S 18:40:04 71° E 18:45:16 10° N
Cosmos 1933 Rocket 4.4 18:38:46 16° NE 18:41:10 26° E 18:44:48 10° SE
Cosmos 2278 3.8 18:36:12 10° N 18:41:40 49° ENE 18:47:06 10° SSE
Cosmos 1666 Rocket 4.4 18:39:14 10° NNW 18:43:30 53° W 18:47:43 10° S
Cosmos 1470 Rocket 3.5 18:42:38 10° N 18:47:03 62° E 18:51:28 10° SSE
Meteor 1-27 Rocket 3.7 18:42:00 10° S 18:47:35 81° W 18:53:06 10° N
SWIFT 2.2 18:43:27 10° WNW 18:47:41 82° NNE 18:49:55 27° E
DMSP B5D1-3 4.4 18:45:53 10° NNE 18:51:00 83° ESE 18:56:06 10° S
USA 234 4.2 18:49:50 22° ENE 18:51:01 24° NE 18:56:00 10° N
CZ-3C R/B 3.7 18:49:12 10° S 18:52:03 16° SE 18:54:42 14° ESE
CZ-4B R/B 3.2 18:46:58 10° SSE 18:52:30 88° WSW 18:57:54 10° NNW
SJ-11-01 4.2 18:49:09 10° SSE 18:53:54 84° ENE 18:58:38 10° N
deb Chang Zheng 4 3.7 18:53:48 10° S 18:58:04 75° WSW 19:02:22 10° NNW
IRAS Rocket 4.3 18:57:28 10° N 19:02:59 81° WNW 19:08:32 10° SSW
Cosmos 1833 4.3 18:57:41 10° SSW 19:03:17 78° WNW 19:07:55 15° NNE
Cosmos 2228 Rocket 3.0 19:05:31 10° S 19:09:54 82° W 19:12:34 23° N
Meteosat 1 Rocket2 4.1 19:07:24 10° W 19:10:53 25° NNW 19:11:16 25° N
BREEZE-M DEB (TANK) 2.3 19:09:31 10° SW 19:11:44 73° WNW 19:11:44 73° WNW
H-2A R/B 2.1 19:09:34 26° N 19:12:04 85° WNW 19:16:29 10° SSW
Aurora 2 Rocket 3.3 19:08:36 10° WNW 19:13:49 73° NNE 19:16:33 38° E
Cosmos 1655 Rocket 4.1 19:07:39 10° N 19:14:00 78° W 19:20:17 10° S
GPS 2-15 Rocket1 3.0 19:12:48 10° WNW 19:17:26 64° N 19:17:39 63° NNE
USA 276 4.0 19:16:00 10° WNW 19:18:46 30° SW 19:19:56 22° SSW
SL-24 R/B - RUBIN 2 4.1 19:15:03 10° NW 19:19:15 57° WSW 19:23:37 10° S
DNEPR-1 R/B 3.7 19:15:29 10° SSW 19:20:59 86° ESE 19:21:53 60° NNE
CZ-4 R/B 1.9 19:17:45 10° SSE 19:20:47 47° SSE 19:20:47 47° SSE
BREEZE-M DEB (TANK) 4.1 19:16:03 10° NNW 19:21:46 36° N 19:21:46 36° N
SL-27 R/B 3.7 19:23:59 10° SW 19:27:09 36° WNW 19:27:19 36° WNW
SL-08 RB Rocket 4.4 19:23:57 10° S 19:28:30 54° W 19:33:01 10° NNW
Cosmos 1553 Rocket 3.8 19:25:34 10° S 19:31:48 69° E 19:32:48 59° NE
Gbstr 26 Del rocket 4.2 19:31:48 10° SW 19:38:06 53° NW 19:39:15 45° NNW
YAOGAN 1 3.1 19:34:56 10° S 19:39:10 57° W 19:39:20 56° W
Meteor 1-18 Rocket 4.2 19:37:07 10° S 19:42:57 89° W 19:43:21 79° N
CZ-4C R/B 3.5 19:52:55 10° NNW 20:01:13 66° WSW 20:09:49 10° SSE
VEP-3 3.2 19:59:32 10° WSW 20:05:10 82° NNW 20:05:55 74° NE
Hubble Space Telescope 3.8 20:04:36 10° SSW 20:04:42 11° SSW 20:04:42 11° SSW
